Dewpoint
21 19 21 20 19 17 17 17 18 18 18 18 17 17 17 19 21 24 27 28 28 28 28 29 29 31 32 32 32 34 35 37 39 44 50 54 56 61 59 59 58 58 57
19 19 20 18 19 16 17 19 19 18 19 19 18 19 18 20 21 24 25 27 26 28 24 27 28 29 30 31 32 33 34 36 39 43 46 48 59 61 60 57 58 58 57
18 17 20 19 21 18 20 20 21 20 19 18 20 19 19 19 20 20 21 23 25 26 27 27 27 27 29 30 31 32 33 33 36 37 40 44 50 49 60 59 56 57 57
18 17 19 17 20 20 20 22 23 22 19 20 19 17 16 14 18 19 20 21 23 25 26 27 26 27 29 29 30 29 33 34 33 36 35 39 39 39 44 56 57 56 56
19 17 19 20 20 19 19 20 21 23 22 21 20 19 17 18 19 19 18 19 21 24 25 26 26 26 28 29 29 30 32 33 32 33 34 34 36 38 40 41 50 55 55
20 20 21 22 18 13 13 19 17 22 19 20 20 18 16 16 16 16 17 18 22 24 25 26 26 26 27 27 28 29 30 31 32 32 33 34 34 35 36 38 42 46 53
20 23 23 24 21 19 16 14 17 15 13 12 18 19 17 17 17 17 17 18 19 21 23 25 25 26 26 27 27 28 29 29 30 31 32 33 34 35 35 34 35 39 49
23 24 24 24 24 22 19 16 13 11 12 9 12 17 18 19 19 19 19 18 18 20 22 24 25 25 25 26 26 27 27 28 29 29 31 31 32 35 36 35 33 33 37
23 23 24 25 26 25 24 22 19 13 10 11 8 12 17 17 17 17 17 18 19 20 22 24 24 24 25 26 26 26 26 26 27 28 29 29 32 33 34 36 36 35 36
21 21 22 23 24 23 21 17 14 13 10 9 11 14 13 16 17 17 17 17 19 21 23 23 23 24 25 25 25 25 25 25 26 26 27 28 30 31 35 36 37 37 37
23 23 22 22 22 19 16 17 15 11 10 10 9 9 11 12 15 16 16 18 20 21 22 22 23 23 22 23 25 25 25 24 24 25 25 26 27 29 31 35 38 39 40
19 19 19 20 19 19 18 17 17 15 14 10 7 7 1 6 10 13 15 17 19 21 22 22 22 23 23 23 24 24 24 24 23 24 25 25 25 27 29 31 32 36 37
19 20 20 20 20 17 15 13 13 13 11 3 1 -0 -1 -4 2 8 13 16 18 19 21 22 23 23 24 24 25 25 25 25 25 25 24 25 25 25 28 30 29 34 34
21 21 17 16 15 14 13 12 12 11 9 5 -2 -3 -1 -2 -0 4 10 14 16 18 20 22 24 24 26 27 28 28 29 30 27 26 26 25 25 25 26 29 29 31 33
23 22 21 18 15 13 12 13 10 9 6 7 2 4 0 -4 -2 3 7 11 15 18 20 22 24 25 25 26 27 28 31 31 30 30 29 27 28 29 29 28 29 33 35
22 23 23 23 21 17 16 15 13 10 9 7 8 5 2 -2 0 2 5 8 13 15 18 20 24 24 24 28 29 29 30 32 33 33 33 32 31 30 32 34 34 31 36
19 20 19 20 22 20 20 16 14 10 9 9 10 10 5 5 2 2 3 6 9 14 16 19 23 23 24 28 29 30 28 30 29 28 28 30 32 31 28 32 33 34 37
16 15 14 13 15 21 19 13 14 13 9 8 11 9 5 3 4 1 2 3 6 13 16 19 20 21 23 27 28 29 28 30 32 30 30 29 31 32 30 29 29 29 34
16 15 15 14 12 14 18 15 13 13 12 10 11 11 5 -1 2 5 3 6 5 14 16 18 17 18 21 27 29 30 30 29 29 29 31 35 31 33 35 31 30 29 32
19 21 19 20 10 8 14 12 10 10 9 11 12 12 11 5 -1 1 4 4 5 12 16 16 17 20 21 26 30 32 29 27 27 26 34 37 33 34 35 32 31 32 32
22 23 22 22 21 8 8 9 7 5 5 5 7 9 12 11 4 0 -1 2 9 13 13 16 17 17 21 24 30 32 28 27 25 23 28 33 38 36 36 36 34 33 37
23 23 22 22 22 12 3 3 3 2 3 5 5 4 6 9 14 2 4 5 8 11 12 17 16 18 20 24 28 31 31 30 24 22 28 33 38 39 38 38 38 39 40
22 23 22 22 21 13 8 1 1 3 4 4 2 1 4 5 6 7 7 8 9 10 12 19 15 16 19 19 25 28 29 29 25 24 30 33 38 40 39 41 41 41 42
21 21 23 20 19 14 5 3 2 4 3 2 0 0 3 5 3 5 11 8 10 13 15 17 16 15 16 18 21 23 23 26 24 24 25 27 29 30 28 26 28 29 35
21 21 21 19 18 20 10 4 4 4 2 0 -0 1 4 4 3 4 5 8 11 17 16 16 16 15 16 17 21 22 21 22 23 21 19 19 19 19 20 21 22 24 25
18 19 19 13 14 15 19 7 6 5 4 0 0 5 4 5 4 5 5 12 16 18 19 18 17 15 19 20 20 21 22 22 22 15 14 15 16 16 17 18 19 20 21
Lifted_Index
14 15 17 18 18 18 18 18 19 20 20 20 20 19 19 20 21 22 22 22 22 21 20 19 19 18 18 17 17 16 13 9 6 2 -0 -1 -1 -0 0 0 0 1 1
14 15 16 17 17 18 18 18 19 20 21 21 20 20 20 20 21 21 22 22 22 22 21 20 19 19 18 18 17 17 15 12 9 6 2 0 -0 0 0 0 0 0 0
13 14 15 16 16 17 18 19 19 20 21 21 21 20 20 19 19 20 21 22 22 22 21 20 19 19 18 18 18 17 16 15 14 11 7 3 1 0 0 1 0 0 0
13 14 15 15 16 17 18 19 19 20 20 21 21 20 18 18 19 20 20 21 22 22 21 21 20 19 19 18 18 18 18 17 16 15 12 7 3 1 1 1 1 1 1
13 14 14 15 15 16 17 18 19 19 20 20 20 19 18 18 19 19 20 20 21 22 21 21 20 19 19 18 18 18 18 18 17 16 15 11 6 3 2 2 2 2 1
14 14 14 14 15 16 17 17 18 19 19 20 20 20 19 19 19 19 19 20 21 21 21 21 20 19 19 18 18 18 18 18 17 17 17 14 11 8 5 4 3 2 2
14 14 14 14 14 15 16 17 17 18 18 19 20 20 20 20 20 19 19 20 20 21 21 21 20 19 19 19 19 18 18 18 18 17 17 17 15 14 12 8 5 3 3
14 14 14 14 14 14 15 16 16 17 18 19 20 21 21 21 21 21 21 21 21 22 21 21 20 20 19 19 19 18 18 18 18 18 17 17 17 17 16 14 10 6 4
14 14 14 13 13 14 14 15 16 16 17 18 19 21 22 22 22 23 23 23 23 22 22 21 20 20 20 19 19 18 18 18 18 18 17 17 17 17 18 17 15 10 7
13 13 13 13 13 14 14 15 16 16 17 18 19 21 22 22 23 23 24 24 24 23 21 21 20 20 20 20 19 19 19 18 18 18 18 17 17 17 18 18 17 15 12
12 13 13 13 13 14 15 15 16 17 18 19 20 21 22 23 23 24 24 24 24 23 21 20 20 20 20 20 20 20 20 19 19 19 18 18 18 18 18 18 18 17 16
11 12 13 13 13 13 15 16 16 17 18 19 20 21 22 23 23 24 24 25 24 22 21 20 20 20 20 20 20 20 20 20 20 20 19 19 19 19 19 19 19 18 17
11 12 12 12 13 13 15 16 16 17 18 19 19 20 21 22 23 24 24 24 24 22 21 20 20 20 20 20 21 20 20 20 20 20 20 20 20 19 20 20 20 19 19
11 11 12 12 12 13 15 16 16 17 18 19 19 20 21 22 23 24 24 24 24 23 22 21 21 21 20 20 20 20 19 18 18 19 19 19 19 19 19 20 20 20 20
10 11 11 12 12 13 14 15 16 17 18 18 19 19 21 22 23 24 24 24 24 23 23 22 21 21 20 20 19 18 17 16 16 16 17 17 17 17 18 19 20 20 20
11 11 11 11 12 13 14 15 16 17 18 18 19 19 20 22 22 23 24 24 24 24 24 23 22 20 19 18 17 17 16 16 16 16 16 15 15 15 16 17 19 20 20
11 11 11 11 12 13 14 15 16 17 18 18 18 19 20 21 22 23 24 24 24 24 24 23 22 20 18 17 17 17 17 17 16 16 15 15 15 14 14 16 17 18 19
12 12 12 12 12 13 14 15 16 17 17 18 18 19 20 21 22 23 24 25 25 24 24 23 22 19 17 16 16 17 17 17 16 15 14 13 13 13 13 14 15 17 18
12 12 12 12 12 13 14 15 15 16 17 17 18 19 20 21 22 23 24 25 25 25 24 24 22 19 17 15 16 17 18 17 16 14 12 11 12 12 12 13 14 15 16
12 12 12 12 12 13 14 14 15 16 17 18 19 19 20 21 22 24 25 25 25 25 25 24 22 19 17 16 16 18 18 17 16 13 11 10 10 11 12 12 13 14 15
11 11 11 12 12 13 13 13 14 15 17 18 19 20 21 22 23 24 25 26 26 25 24 23 21 20 18 17 17 17 18 18 17 14 12 10 10 10 11 11 13 14 14
10 10 11 11 12 12 12 12 13 16 18 19 19 20 21 22 23 25 26 26 26 25 24 23 21 20 20 19 18 17 17 18 18 17 14 11 9 9 10 11 12 13 13
9 9 10 10 11 12 12 12 14 16 18 18 18 19 21 22 23 25 25 25 25 25 24 23 21 21 21 21 19 17 16 17 17 18 16 12 9 9 10 11 11 12 12
8 8 9 9 10 11 12 13 15 16 17 17 18 19 21 22 23 24 25 25 26 25 25 24 22 21 21 22 21 19 17 15 15 15 14 11 9 10 10 11 11 10 10
7 8 8 9 10 11 12 13 15 16 17 17 17 19 20 22 23 24 25 25 26 26 26 25 24 23 23 23 22 20 18 16 14 12 11 9 9 9 10 10 10 10 10
7 7 8 9 10 10 12 13 15 16 16 16 17 18 20 21 23 24 25 26 26 26 26 26 25 24 24 24 23 21 19 16 13 10 9 8 9 9 9 10 10 10 10